This demonstration page uses our WeatherBlox Daily Observations layout. Learn more.

Left ArrowRight Arrow

Hourly Observations for February 5, 2019

Temp ( °F °C ) Dew Point ( °F °C ) Humidity (%) Winds ( mph kmh ) Pressure ( in mb ) Visibility ( mi km ) Precip ( " mm )
12:03 am 00:03 Cloudy with Light Rain 54 12.2 53 11.7 97 97 N N/A 29.91 1013 1 2 N/A
12:27 am 00:27 Cloudy with Mist and Fog 54 12.2 53 11.7 97 97 SSW 3 6 29.92 1013 2 2 N/A
12:33 am 00:33 Cloudy with Mist and Fog 55 12.8 53 11.7 93 93 SSW 3 6 29.92 1013 2 3 N/A
12:40 am 00:40 Cloudy with Mist and Fog 54 12.2 53 11.7 97 97 N N/A 29.92 1013 2 2 N/A
12:49 am 00:49 Cloudy with Mist and Fog 54 12 54 12 100 100 N N/A 29.92 1013 1 2 N/A
12:53 am 00:53 Cloudy with Mist and Fog 53 11.7 52 11.1 96 96 N N/A 29.92 1013 1 1 N/A
1:19 am 01:19 Cloudy with Light Rain 52 11.1 51 10.6 97 97 SSW 3 6 29.93 1013 1 2 N/A
1:34 am 01:34 Cloudy with Fog 53 11.7 52 11.1 96 96 N N/A 29.92 1013 1 1 N/A
1:53 am 01:53 Cloudy with Fog 53 11.7 52 11.1 96 96 N N/A 29.92 1013 1 1 N/A
2:42 am 02:42 Mostly Cloudy with Light Rain 51 10.6 50 10 96 96 N N/A 29.95 1014 0 0 N/A
2:53 am 02:53 Mostly Cloudy with Light Rain 51 10.6 49 9.4 92 92 N N/A 29.94 1014 0 0 N/A
3:28 am 03:28 Mostly Cloudy with Fog 53 11.7 51 10.6 93 93 W 6 9 29.96 1015 0 0 N/A
3:42 am 03:42 Mostly Cloudy with Fog 54 12.2 53 11.7 97 97 W 5 7 29.96 1015 0 0 N/A
3:53 am 03:53 Mostly Cloudy with Fog 54 12.2 53 11.7 97 97 W 7 11 29.97 1015 0 0 N/A
4:03 am 04:03 Cloudy with Mist and Fog 53 11.7 52 11.1 96 96 NW 9 15 29.97 1015 2 3 N/A
4:10 am 04:10 Cloudy with Mist and Fog 53 11.7 52 11.1 96 96 NW 9 15 29.97 1015 6 10 N/A
4:53 am 04:53 Cloudy with Mist and Fog 50 10 48 8.9 93 93 NW 13 20 30.00 1016 6 10 N/A
5:53 am 05:53 Cloudy 47 8.3 45 7.2 93 93 WNW 6 9 30.02 1017 8 13 N/A
6:00 am 06:00 Cloudy 46 7.8 44 6.7 93 93 WNW 6 9 30.04 1017 7 11 N/A
6:22 am 06:22 Cloudy with Mist and Fog 46 7.8 44 6.7 93 93 NW 8 13 30.05 1018 4 6 N/A
6:42 am 06:42 Cloudy with Mist and Fog 44 6.7 42 5.6 93 93 N 7 11 30.06 1018 4 6 N/A
6:53 am 06:53 Cloudy 44 6.7 41 5 89 89 NNW 7 11 30.05 1018 9 14 N/A
7:53 am 07:53 Cloudy 43 6.1 40 4.4 89 89 NNW 5 7 30.08 1019 8 13 N/A
8:50 am 08:50 Cloudy with Mist and Fog 43 6 39 4 87 87 N 3 6 30.11 1020 3 4 N/A
8:53 am 08:53 Cloudy with Mist and Fog 43 6.1 40 4.4 89 89 N 3 6 30.09 1019 3 4 N/A
9:00 am 09:00 Cloudy with Mist and Fog 42 5.6 40 4.4 92 92 N N/A 30.11 1020 3 4 N/A
9:27 am 09:27 Cloudy with Mist and Fog 42 5.6 40 4.4 92 92 N 6 9 30.11 1020 3 5 N/A
9:53 am 09:53 Cloudy with Mist and Fog 42 5.6 40 4.4 92 92 N 6 9 30.11 1020 4 6 N/A
10:46 am 10:46 Cloudy 42 5.6 39 3.9 89 89 NNW 6 9 30.15 1021 7 11 N/A
10:53 am 10:53 Cloudy 42 5.6 39 3.9 89 89 N 7 11 30.13 1020 7 11 N/A
11:53 am 11:53 Cloudy with Mist and Fog 42 5.6 39 3.9 89 89 N 6 9 30.14 1021 6 10 N/A
12:32 pm 12:32 Cloudy with Mist and Fog 42 5.6 40 4.4 92 92 NNE 5 7 30.14 1021 5 8 N/A
12:53 pm 12:53 Cloudy with Mist and Fog 42 5.6 40 4.4 92 92 N 6 9 30.13 1020 5 8 N/A
1:53 pm 13:53 Cloudy with Mist and Fog 42 5.6 40 4.4 92 92 VRB 3 6 30.11 1020 4 6 N/A
2:33 pm 14:33 Cloudy with Mist and Fog 42 5.6 40 4.4 92 92 NNE 6 9 30.12 1020 3 4 N/A
2:53 pm 14:53 Cloudy with Mist and Fog 42 5.6 39 3.9 89 89 NE 6 9 30.10 1019 2 3 N/A
3:34 pm 15:34 Cloudy with Mist and Fog 41 5 39 3.9 93 93 NE 5 7 30.11 1020 2 3 N/A
3:53 pm 15:53 Cloudy with Mist and Fog 41 5 39 3.9 93 93 NNE 6 9 30.09 1019 2 3 N/A
4:27 pm 16:27 Cloudy with Mist and Fog 41 5 39 3.9 93 93 NNE 3 6 30.11 1020 2 3 N/A
4:53 pm 16:53 Cloudy with Mist and Fog 41 5 39 3.9 93 93 N N/A 30.09 1019 2 3 N/A
5:53 pm 17:53 Cloudy with Mist and Fog 41 5 39 3.9 93 93 N 3 6 30.10 1019 2 3 N/A
6:11 pm 18:11 Cloudy with Mist and Fog 41 5 39 3.9 93 93 NNE 5 7 30.11 1020 3 5 N/A
6:53 pm 18:53 Cloudy with Mist and Fog 42 5.6 40 4.4 92 92 ENE 7 11 30.09 1019 5 8 N/A
7:53 pm 19:53 Cloudy with Light Rain 42 5.6 40 4.4 92 92 E 7 11 30.09 1019 6 10 0.01 0.25
8:39 pm 20:39 Cloudy 42 5.6 40 4.4 92 92 ENE 6 9 30.09 1019 7 11 0.02 0.51
8:53 pm 20:53 Cloudy 42 5.6 40 4.4 92 92 E 6 9 30.08 1019 8 13 0.02 0.51
9:53 pm 21:53 Cloudy 42 5.6 40 4.4 92 92 E 6 9 30.06 1018 7 11 N/A
10:53 pm 22:53 Cloudy 42 5.6 40 4.4 92 92 ENE 3 6 30.05 1018 7 11 N/A
11:35 pm 23:35 Cloudy with Light Rain 42 5.6 40 4.4 92 92 N N/A 30.06 1018 5 8 N/A
11:53 pm 23:53 Cloudy with Rain 42 5.6 40 4.4 92 92 N N/A 30.05 1018 2 3 0.05 1.27

Powered by AerisWeather